STARLINK-1239 (45193 NORAD) Tracking and Keplerian Element Data

This shows tracking and keplerian element data for the satellite.

Feedback or suggestion? Click here.




ElementValue
Catalog45193
NameSTARLINK-1239
Epoch Orbit160
Epoch Day93.91667824
Epoch Year2020
RAAN53.6249
Inclination52.9992
Eccentricity0.000137
Argument of Perigee74.0243
Mean Anonmoly253.3331
Mean Motion15.05602889
Decay Rate0.00058988
L11 45193U 20012R 20093.91667824 .00058988 00000-0 40314-2 0 9996
L22 45193 52.9992 53.6249 0001370 74.0243 253.3331 15.05602889 1601

Live tracking and technical data element details for STARLINK-1239 (NORAD 45193). STARLINK-1239 can be tracked NOW for your location showing map with azimuth and elevation plus other details from your city location.

Track the satellite on the map from your city or location and see movement details for azimuth, elevation, latitude, longitude, range, height, and movement on the map or in text.







IsCatalogInMostPopularTable: catalog: 45193, numindb: 7
Update: records affected: 1



GetName: 45193 STARLINK-1239

Hit Count: updated at: Mon, 06 Apr 2020 11:02:43 GMT